www.pogodaiklimat.ru

Погода и климат >> Архив погоды >> Италия >> Конкордия-Саджиттария


ПОГОДА в Конкордия-Саджиттарии

  • Прогноз погоды в Конкордия-Саджиттарии
  • Монитор погоды в Конкордия-Саджиттарии

АРХИВ ПОГОДЫ в Конкордия-Саджиттарии

Время (UTC), дата Ветер
(напр.,м/с)
 
Видим.   Явления Облачность Т
(С)
Тd
(С)
f
(%)
Тe
(С)
Тes
(С)
Комфортность P
(гПа)
Po
(гПа)
Тmin
(С)
Tmax
(С)
R
(мм)
R24
(мм)
S
(см)
09 11.06 ЮВ 4 н/о н/о +27.2 +19.5 63 +33 +33 очень
душно
1014.2 1009.5
10 11.06 В 4 н/о н/о +27.5 +19.5 62 +33 +33 очень
душно
1014.3 1009.6
11 11.06 ЮВ 4 н/о н/о +28.1 +19.3 59 +34 +34 очень
душно
1014.3 1009.6
12 11.06 ЮВ 7 н/о н/о +28.5 +19.4 58 +34 +34 очень
душно
1014.1 1009.4
13 11.06 ЮВ 5 н/о н/о +28.6 +18.9 56 +34 +34 очень
душно
1013.9 1009.2
14 11.06 ЮВ 3 н/о н/о +29.0 +18.7 54 +34 +34 очень
душно
1013.6 1008.9
15 11.06 ЮВ 4 н/о н/о +28.6 +18.0 53 +33 +33 очень
душно
1013.3 1008.6
16 11.06 Ю 3 н/о н/о +26.4 +18.2 61 +31 +31 душно 1013.4 1008.7
17 11.06 ЮВ 2 н/о н/о +26.7 +17.4 57 +31 +31 душно 1013.3 1008.6
18 11.06 СВ 2 н/о н/о +26.2 +19.0 65 +31 +31 очень
душно
1013.9 1009.2 +29.3
19 11.06 СВ 2 н/о н/о +24.3 +17.5 66 +28 +28 душно 1013.8 1009.0
20 11.06 С 2 н/о н/о +23.2 +18.5 75 +29 +29 душно 1014.3 1009.5
21 11.06 СВ 1 н/о н/о +22.9 +18.4 76 +29 +29 очень
душно
1014.6 1009.8
22 11.06 штиль 0 н/о н/о +21.3 +18.0 81 +25 +25 комфорт 1014.0 1009.2
23 11.06 СЗ 1 н/о н/о +21.8 +19.5 87 +27 +27 душно 1014.3 1009.5
00 12.06 С 2 н/о н/о +22.2 +19.7 86 +28 +28 душно 1014.2 1009.4
01 12.06 С 2 н/о н/о +22.5 +19.8 85 +29 +29 очень
душно
1014.3 1009.5
02 12.06 С 1 н/о н/о +22.0 +19.1 84 +27 +27 душно 1014.1 1009.3
03 12.06 С 2 н/о н/о +21.9 +19.0 84 +27 +27 душно 1013.6 1008.8
04 12.06 С 3 н/о н/о +20.8 +18.3 86 +25 +25 комфорт 1013.4 1008.6
05 12.06 С 3 н/о н/о +21.9 +19.8 88 +28 +28 душно 1013.8 1009.0
06 12.06 СВ 4 н/о н/о +23.8 +19.9 79 +29 +29 душно 1013.5 1008.7 +20.7 307
07 12.06 В 3 н/о н/о +26.6 +19.2 64 +32 +32 очень
душно
1014.1 1009.4
08 12.06 Ю 3 н/о н/о +27.2 +18.7 60 +32 +32 очень
душно
1014.4 1009.7
09 12.06 ЮВ 4 н/о н/о +27.0 +18.8 61 +32 +32 очень
душно
1014.7 1010.0
10 12.06 Ю 6 н/о н/о +27.0 +19.8 65 +33 +33 очень
душно
1015.0 1010.3
11 12.06 ЮВ 4 н/о н/о +27.2 +21.4 71 +35 +35 очень
душно
1015.0 1010.3
12 12.06 Ю 3 н/о н/о +27.3 +20.8 68 +34 +34 очень
душно
1014.8 1010.1
13 12.06 ЮВ 4 н/о н/о +27.3 +21.3 70 +35 +35 очень
душно
1014.5 1009.8
14 12.06 В 4 н/о н/о +27.3 +20.8 68 +34 +34 очень
душно
1014.3 1009.6
15 12.06 ЮВ 4 н/о н/о +27.5 +19.8 63 +33 +33 очень
душно
1014.3 1009.6
16 12.06 В 3 н/о н/о +26.7 +20.7 70 +33 +33 очень
душно
1014.0 1009.3
17 12.06 ЮВ 3 н/о н/о +25.9 +21.1 75 +33 +33 очень
душно
1014.0 1009.3
18 12.06 ЮВ 3 н/о н/о +24.4 +21.1 82 +31 +31 очень
душно
1014.5 1009.7 +28.1
19 12.06 В 1 н/о н/о +22.8 +21.0 90 +30 +30 очень
душно
1014.9 1010.1
20 12.06 штиль 0 н/о н/о +21.8 +20.0 90 +27 +27 душно 1015.5 1010.7
21 12.06 штиль 0 н/о н/о +21.0 +19.2 89 +25 +25 комфорт 1015.7 1010.9
22 12.06 штиль 0 н/о н/о +20.9 +19.1 89 +25 +25 комфорт 1016.1 1011.3
23 12.06 С 1 н/о н/о +21.5 +19.7 89 +27 +27 душно 1016.1 1011.3
00 13.06 СВ 2 н/о н/о +21.5 +19.7 89 +27 +27 душно 1016.0 1011.2
01 13.06 С 1 н/о н/о +20.8 +19.0 89 +27 +27 душно 1015.7 1010.9
02 13.06 штиль 0 н/о н/о +20.6 +18.8 89 +24 +24 комфорт 1015.9 1011.1
03 13.06 С 1 н/о н/о +19.9 +18.1 89 +24 +24 комфорт 1015.7 1010.9
04 13.06 С 1 н/о н/о +19.5 +17.8 90 +23 +23 комфорт 1016.3 1011.5
05 13.06 С 3 н/о н/о +20.7 +18.9 89 +25 +25 комфорт 1016.8 1012.0
06 13.06 С 2 н/о н/о +23.3 +21.5 90 +31 +31 очень
душно
1017.4 1012.6 +19.1 203
07 13.06 СВ 2 н/о н/о +24.5 +21.0 81 +31 +31 очень
душно
1017.8 1013.0
08 13.06 СВ 4 н/о н/о +26.1 +21.5 76 +33 +33 очень
душно
1018.2 1013.4
09 13.06 Ю 2 н/о н/о +27.2 +21.7 72 +35 +35 очень
душно
1018.4 1013.7
10 13.06 ЮВ 2 н/о н/о +27.9 +22.1 71 +36 +36 очень
душно
1018.6 1013.9
11 13.06 Ю 4 н/о н/о +28.8 +20.5 61 +36 +36 очень
душно
1018.7 1014.0
12 13.06 ЮВ 8 н/о н/о +27.8 +22.7 74 +37 +37 очень
душно
1018.7 1014.0
13 13.06 Ю 5 н/о н/о +28.6 +18.9 56 +34 +34 очень
душно
1018.8 1014.1
14 13.06 В 6 н/о н/о +29.0 +14.0 40 +31 +31 жарко 1018.9 1014.2
15 13.06 ЮВ 4 н/о н/о +28.8 +12.3 36 +30 +30 жарко 1019.1 1014.4
16 13.06 Ю 4 н/о н/о +28.5 +13.9 41 +30 +30 жарко 1019.2 1014.5
17 13.06 Ю 2 н/о н/о +27.9 +13.7 42 +30 +30 жарко 1019.4 1014.7
18 13.06 Ю 3 н/о н/о +26.4 +13.1 44 +28 +28 жарко 1019.9 1015.1 +29.8
19 13.06 ЮВ 3 н/о н/о +24.0 +14.6 56 +27 +27 жарко 1020.2 1015.4
20 13.06 В 1 н/о н/о +21.0 +14.6 67 +25 +25 комфорт 1020.9 1016.1
21 13.06 Ю 1 н/о н/о +19.4 +15.4 78 +22 +22 комфорт 1021.6 1016.7
22 13.06 СЗ 3 н/о н/о +18.4 +16.3 88 +19 +19 1022.1 1017.2
23 13.06 С 1 н/о н/о +18.3 +16.2 88 +20 +20 1022.2 1017.3
00 14.06 В 1 н/о н/о +17.9 +16.2 90 +19 +19 1022.1 1017.2
01 14.06 штиль 0 н/о н/о +17.6 +15.9 90 +18 +18 1021.9 1017.0
02 14.06 С 2 н/о н/о +17.4 +15.7 90 +18 +18 1021.8 1016.9
03 14.06 С 2 н/о н/о +16.8 +15.1 90 +17 +17 1021.8 1016.9
04 14.06 С 1 н/о н/о +16.3 +14.6 90 +17 +17 1022.4 1017.5
05 14.06 С 2 н/о н/о +18.1 +16.2 89 +19 +19 1022.9 1018.0
06 14.06 С 3 н/о н/о +20.5 +16.3 77 +24 +24 комфорт 1023.0 1018.1 +16.3 106
07 14.06 С 3 н/о н/о +23.2 +17.4 70 +29 +29 душно 1023.3 1018.5
08 14.06 СВ 2 н/о н/о +25.5 +18.9 67 +30 +30 душно 1023.7 1018.9
09 14.06 В 1 н/о н/о +26.9 +18.1 59 +32 +32 очень
душно
1023.6 1018.8
10 14.06 С 2 н/о н/о +28.6 +18.3 54 +33 +33 очень
душно
1023.2 1018.5
11 14.06 С 2 н/о н/о +29.0 +15.8 45 +32 +32 душно 1022.9 1018.2
12 14.06 ЮВ 2 н/о н/о +30.6 +17.6 46 +35 +35 очень
душно
1022.7 1018.0
13 14.06 В 1 н/о н/о +30.8 +17.5 45 +35 +35 очень
душно
1022.0 1017.3
14 14.06 ЮВ 2 н/о н/о +30.8 +14.8 38 +33 +33 душно 1021.5 1016.8
15 14.06 В 2 н/о н/о +30.9 +14.5 37 +33 +33 душно 1021.3 1016.6
16 14.06 Ю 3 н/о н/о +30.1 +12.9 35 +31 +31 жарко 1020.7 1016.0
17 14.06 штиль 0 н/о н/о +28.6 +16.8 49 +32 +32 душно 1020.0 1015.3
18 14.06 Ю 1 н/о н/о +26.9 +17.0 55 +31 +31 душно 1019.9 1015.2 +31.6
19 14.06 Ю 2 н/о н/о +24.3 +14.3 54 +27 +27 жарко 1019.8 1015.0
20 14.06 ЮЗ 2 н/о н/о +23.0 +12.6 52 +26 +26 жарко 1020.4 1015.6
21 14.06 З 1 н/о н/о +22.0 +11.9 53 +24 +24 комфорт 1020.4 1015.6
22 14.06 штиль 0 н/о н/о +20.9 +13.3 62 +23 +23 комфорт 1020.4 1015.6
23 14.06 штиль 0 н/о н/о +20.1 +13.7 67 +22 +22 комфорт 1019.9 1015.0
00 15.06 СВ 2 н/о н/о +20.7 +16.2 75 +25 +25 комфорт 1019.2 1014.4
01 15.06 С 3 н/о н/о +20.5 +16.7 79 +24 +24 комфорт 1018.8 1014.0
02 15.06 С 2 н/о н/о +21.0 +17.9 82 +26 +26 душно 1018.3 1013.5
03 15.06 СЗ 2 н/о н/о +21.2 +18.1 82 +25 +25 комфорт 1018.3 1013.5
04 15.06 С 3 н/о н/о +21.4 +17.5 78 +25 +25 комфорт 1018.1 1013.3
05 15.06 ЮЗ 1 н/о н/о +22.4 +17.0 72 +27 +27 душно 1018.3 1013.5
06 15.06 СВ 3 н/о н/о +22.2 +18.3 79 +27 +27 душно 1017.5 1012.7 +19.8 104
07 15.06 СЗ 3 н/о н/о +23.0 +17.2 70 +28 +28 душно 1017.8 1013.0
08 15.06 С 2 н/о н/о +25.4 +18.5 66 +30 +30 душно 1018.6 1013.8
09 15.06 С 2 н/о н/о +28.6 +18.0 53 +33 +33 очень
душно
1018.5 1013.8
10 15.06 штиль 0 н/о н/о +29.4 +17.8 50 +34 +34 очень
душно
1017.8 1013.1
11 15.06 СВ 3 н/о н/о +31.0 +18.0 46 +35 +35 очень
душно
1017.6 1012.9
12 15.06 В 2 н/о н/о +31.9 +18.1 44 +36 +36 очень
душно
1017.4 1012.7
13 15.06 ЮВ 4 н/о н/о +30.0 +18.7 51 +35 +35 очень
душно
1017.1 1012.4
14 15.06 ЮВ 3 н/о н/о +29.7 +19.7 55 +36 +36 очень
душно
1017.1 1012.4
15 15.06 В 2 н/о н/о +30.3 +19.0 51 +36 +36 очень
душно
1016.5 1011.8
16 15.06 ЮВ 3 н/о н/о +29.4 +21.6 63 +37 +37 очень
душно
1015.8 1011.1
17 15.06 Ю 3 н/о н/о +28.6 +22.1 68 +37 +37 очень
душно
1015.6 1010.9
18 15.06 ЮВ 2 н/о н/о +27.8 +22.2 72 +36 +36 очень
душно
1015.5 1010.8 +32.0
19 15.06 ЮВ 1 н/о н/о +26.0 +22.2 80 +34 +34 очень
душно
1015.6 1010.9
20 15.06 ЮВ 1 н/о н/о +24.7 +22.1 85 +32 +32 очень
душно
1016.4 1011.6
21 15.06 СВ 1 н/о н/о +23.5 +21.3 87 +30 +30 очень
душно
1016.5 1011.7
22 15.06 С 2 н/о н/о +22.7 +20.9 90 +30 +30 очень
душно
1016.8 1012.0
23 15.06 С 2 н/о н/о +22.3 +20.5 90 +29 +29 очень
душно
1016.6 1011.8
00 16.06 С 2 н/о н/о +21.9 +20.1 90 +28 +28 душно 1016.7 1011.9
01 16.06 штиль 0 н/о н/о +20.7 +18.9 89 +25 +25 комфорт 1016.6 1011.8
02 16.06 С 2 н/о н/о +20.5 +18.7 89 +25 +25 комфорт 1016.4 1011.6
03 16.06 С 1 н/о н/о +20.2 +18.4 89 +25 +25 комфорт 1016.4 1011.6
04 16.06 С 2 н/о н/о +20.0 +18.2 89 +24 +24 комфорт 1016.5 1011.7
05 16.06 С 1 н/о н/о +21.2 +19.4 89 +26 +26 душно 1016.7 1011.9
06 16.06 С 2 н/о н/о +24.0 +20.5 81 +30 +30 очень
душно
1016.9 1012.1 +19.8 305
07 16.06 В 2 н/о н/о +25.4 +21.2 78 +32 +32 очень
душно
1017.3 1012.5
08 16.06 В 2 н/о н/о +27.3 +23.1 78 +37 +37 очень
душно
1017.0 1012.3
09 16.06 ЮВ 1 н/о н/о +28.2 +21.2 66 +36 +36 очень
душно
1017.2 1012.5
10 16.06 В 3 н/о н/о +29.3 +21.5 63 +37 +37 очень
душно
1017.2 1012.5
11 16.06 ЮВ 4 н/о н/о +30.0 +19.9 55 +36 +36 очень
душно
1017.3 1012.6
12 16.06 ЮВ 5 н/о н/о +29.7 +19.1 53 +35 +35 очень
душно
1017.2 1012.5
13 16.06 ЮВ 4 н/о н/о +30.2 +18.3 49 +35 +35 очень
душно
1016.9 1012.2
14 16.06 ЮВ 3 н/о н/о +30.0 +16.0 43 +33 +33 душно 1016.6 1011.9
15 16.06 ЮВ 3 н/о н/о +30.7 +17.7 46 +35 +35 очень
душно
1016.1 1011.4
16 16.06 ЮВ 2 н/о н/о +30.9 +18.6 48 +36 +36 очень
душно
1015.6 1010.9
17 16.06 ЮВ 3 н/о н/о +29.9 +20.7 58 +37 +37 очень
душно
1015.7 1011.0
18 16.06 ЮВ 3 н/о н/о +28.3 +21.3 66 +36 +36 очень
душно
1015.7 1011.0 +31.5
19 16.06 ЮВ 1 н/о н/о +26.4 +21.6 75 +34 +34 очень
душно
1016.0 1011.3
20 16.06 В 1 н/о н/о +24.3 +21.6 85 +31 +31 очень
душно
1017.0 1012.2
21 16.06 СВ 3 н/о н/о +23.4 +21.6 90 +32 +32 очень
душно
1018.0 1013.2
22 16.06 СВ 3 н/о н/о +23.5 +21.5 89 +30 +30 очень
душно
1018.4 1013.6
23 16.06 СВ 4 н/о н/о +24.5 +16.2 60 +28 +28 душно 1019.0 1014.2
00 17.06 В 6 н/о н/о +24.6 +16.5 61 +28 +28 душно 1019.1 1014.3
01 17.06 С 3 н/о н/о +22.9 +15.9 65 +27 +27 душно 1019.2 1014.4
02 17.06 С 2 н/о н/о +20.7 +15.8 74 +25 +25 комфорт 1019.2 1014.4
03 17.06 С 2 н/о н/о +20.2 +16.4 79 +24 +24 комфорт 1019.4 1014.5
04 17.06 С 3 н/о н/о +19.9 +15.7 77 +23 +23 комфорт 1020.0 1015.1
05 17.06 СВ 2 н/о н/о +20.5 +16.5 78 +24 +24 комфорт 1020.4 1015.6
06 17.06 С 3 н/о н/о +21.0 +16.7 76 +25 +25 комфорт 1020.7 1015.9 +19.4 104
07 17.06 С 2 н/о н/о +22.1 +17.4 75 +27 +27 душно 1021.0 1016.2
08 17.06 С 3 н/о н/о +24.6 +18.0 67 +29 +29 душно 1021.0 1016.2
09 17.06 СВ 5 н/о н/о +26.8 +16.9 55 +31 +31 душно 1020.7 1016.0
10 17.06 СВ 4 н/о н/о +27.8 +16.4 50 +31 +31 душно 1020.6 1015.9
11 17.06 СВ 4 н/о н/о +29.5 +17.9 50 +34 +34 очень
душно
1020.4 1015.7
12 17.06 С 1 н/о н/о +29.2 +16.0 45 +32 +32 душно 1020.1 1015.4
13 17.06 В 3 н/о н/о +29.9 +17.0 46 +34 +34 очень
душно
1019.6 1014.9
14 17.06 ЮВ 2 н/о н/о +28.4 +16.3 48 +32 +32 душно 1019.1 1014.4
15 17.06 В 4 н/о н/о +29.4 +16.5 46 +33 +33 душно 1018.7 1014.0
16 17.06 СВ 4 н/о н/о +29.6 +16.0 44 +33 +33 душно 1018.6 1013.9
17 17.06 ЮВ 3 н/о н/о +29.1 +16.6 47 +33 +33 очень
душно
1018.7 1014.0
18 17.06 В 5 н/о н/о +28.1 +16.6 50 +32 +32 душно 1018.8 1014.1 +30.5
19 17.06 СВ 3 н/о н/о +25.6 +16.9 59 +29 +29 душно 1019.3 1014.5
20 17.06 СВ 3 н/о н/о +24.2 +17.1 65 +28 +28 душно 1019.9 1015.1
21 17.06 СВ 3 н/о н/о +24.0 +16.7 64 +28 +28 душно 1020.2 1015.4
22 17.06 С 2 н/о н/о +22.7 +16.6 68 +27 +27 душно 1020.7 1015.9
23 17.06 С 2 н/о н/о +21.6 +16.7 74 +26 +26 душно 1020.6 1015.8
00 18.06 СЗ 2 н/о н/о +21.5 +17.0 76 +25 +25 комфорт 1020.6 1015.8
01 18.06 С 2 н/о н/о +20.7 +16.9 79 +25 +25 комфорт 1020.0 1015.2
02 18.06 СЗ 2 н/о н/о +20.0 +17.0 83 +24 +24 комфорт 1019.9 1015.0
03 18.06 С 2 н/о н/о +19.8 +17.3 86 +23 +23 комфорт 1019.5 1014.6
05 18.06 С 2 н/о н/о +20.9 +18.4 86 +26 +26 душно 1019.8 1015.0
06 18.06 С 2 н/о н/о +23.6 +18.2 72 +28 +28 душно 1020.0 1015.2 +19.1 604
07 18.06 СВ 2 н/о н/о +25.4 +18.0 64 +30 +30 душно 1020.1 1015.3
08 18.06 С 2 н/о н/о +26.8 +18.1 59 +31 +31 душно 1019.8 1015.1

 

Местоположение метеостанции Конкордия-Саджиттария (Италия): широта 45.75 долгота 12.85 высота над уровнем моря 1 м.

В архиве по умолчанию представлена погода в Конкордия-Саджиттарии за последнюю неделю. Архивные данные за месяц целиком и за предыдущие месяцы, начиная с января 2011 года, Вы можете получить, выбрав интересующий диапазон дат из раскрывающегося списка и нажав кнопку "Ввод!".


*Определитесь, кто Вы:
робот инопланетянин человек

Внимание! Время в таблицах - всемирное. Для получения местного времени необходимо прибавить поправку, которая равна 1 ч.

Смотрите также архив погоды в соседних городах и на ближайших метеорологических станциях:

Погода на Базе ВВС Риволто (Италия) (29 км)
Погода на Базе ВВС Авиано (Италия) (36 км)
Погода в Авиано (Италия) (37 км)
Погода в Венеции (Италия) (49 км)
Погода в Ронки-деи-Леджонари (Италия) (49 км)
Погода в Венеция аэропорту (Италия) (51 км)
Погода в Тревизо (Италия) (53 км)
Погода в Тревизо аэропорту (Италия) (59 км)
Погода в Портороже (Словения) (62 км)
Погода в Новой Горице (Словения) (63 км)

Пояснения к столбцам:

Ветер - указаны скорость ветра в м/с - средняя за 10 мин, порывы в срок и между сроками (в фигурных скобках) и направление, откуда дует ветер: С - северный, СВ - северо-восточный, В - восточный, ЮВ - юго-восточный, Ю - южный, ЮЗ - юго-западный, З - западный, СЗ - северо-западный.
Видимость - горизонтальная дальность видимости в метрах или километрах. При видимости от 1 до 10 км при отсутствии осадков обычно наблюдается дымка, при ухудшении видимости до 1 км и менее - туман. В сухую погоду видимость может ухудшаться дымом, пылью или мглою.
Явления - указаны атмосферные явления, наблюдавшиеся в срок или в последний час перед сроком; фигурными скобками обозначены явления, наблюдавшиеся между сроками (за 1-3 часа до срока); квадратными скобками обозначены град или гололедные отложения с указанием их диаметра в мм.
Облачность - указаны через наклонную черту общая и нижняя облачность в баллах и высота нижней границы облаков в метрах; квадратными скобками обозначены формы облаков: Ci - перистые, Cs - перисто-слоистые, Cc - перисто-кучевые, Ac - высококучевые, As - высокослоистые, Sc - слоисто-кучевые, Ns - слоисто-дождевые, Cu - кучевые, Cb - кучево-дождевые. Подробнее классификацию облаков см. в Атласе облаков (PDF).
T - Температура воздуха - температура, измеренная на высоте 2 м над землей.
Td - Температура точки росы - температура, при понижении до которой содержащийся в воздухе водяной пар достигнет насыщения.
f - Относительная влажность воздуха - влажноcть воздуха, измеренная на высоте 2 м над землей.
Te - Эффективная температура - температура, которую ощущает одетый по сезону человек в тени. Характеристика душности погоды. При расчете учитывается влияние влажности воздуха и скорости ветра на теплоощущения человека.
Tes - Эффективная температура на солнце - температура, которую ощущает человек, с поправкой на солнечный нагрев. Характеристика знойности погоды. Зависит от высоты солнца над горизонтом, облачности и скорости ветра. Ночью, в пасмурную погоду, а также при ветре 12 м/с и более поправка равна нулю.
P - Атмосферное давление - приведенное к уровню моря атмосферное давление.
Po - Атмосферное давление - измеренное на уровне метеостанции атмосферное давление.
Tmin - Минимальная температура - минимум температуры воздуха на высоте 2 м над землей.
Tmax - Максимальная температура - максимум температуры воздуха на высоте 2 м над землей.
R - Количество осадков - Количество выпавших осадков за период времени, мм. При наведении курсора мыши на число - период времени, за который выпало указанное количество осадков.
R24 - Количество осадков - Количество выпавших осадков за 24 часа, мм.
S - Снежный покров - Высота снежного покрова, см. При наведении курсора мыши на число - состояние снежного покрова и степень покрытия местности в баллах.